Location: Marne
(34.0056°N, 117.9064°W)
Time: 14:24:51
(UTC+00:00)

Cosmos 494 Rocket - Pass Details

Date: 18 January 2020
Orbit: 743 x 770 km, 74.1° (Epoch: 23 February)

Event Time Altitude Azimuth Distance (km) Brightness Sun altitude
Rises 02:40:17 0° 345° (NNW) 3,186 7.2 -19.1°
Reaches altitude 10° 02:42:40 10° 348° (NNW) 2,259 6.4 -19.6°
Maximum altitude 02:47:46 70° 72° (ENE) 788 3.8 -20.6°
Drops below altitude 10° 02:52:51 10° 156° (SSE) 2,251 6.3 -21.6°
Sets 02:55:12 0° 159° (SSE) 3,174 7.1 -22.1°
